Regional Weather Roundup
Issued by NWS Bismarck, ND

Home | Current Version | Previous Version | Text Only | Print | Product List | Glossary On
Versions: 1 2 3 4 5 6 7 8 9 10 11 12 13 14 15 16 17 18 19 20 21 22 23 24 25 26 27 28 29 30 31 32 33 34 35 36 37 38 39 40 41 42 43 44 45 46 47 48 49 50
000
ASUS43 KBIS 231110
RWRBIS

NWR BROADCAST TEXT
NATIONAL WEATHER SERVICE BISMARCK ND
600 AM CDT MON OCT 23 2017

NOTE: "FAIR" INDICATES FEW OR NO CLOUDS BELOW 12,000 FEET WITH NO
SIGNIFICANT WEATHER AND/OR OBSTRUCTIONS TO VISIBILITY.


CITY           SKY/WX    TMP DP  RH WIND       PRES   REMARKS
WILLISTON      CLEAR     43  34  70 NW12      30.03R
MINOT          CLOUDY    43  36  76 W18       29.90R
MINOT AFB      MOCLDY    41  36  82 NW20G25   29.88R
BISMARCK       CLEAR     48  37  65 W17G26    29.91R
DICKINSON      PTCLDY    45  34  65 W29G37    29.98R
GARRISON         N/A     43  35  73 NW18      29.91R
HETTINGER ARPT CLEAR     44  33  65 W30G40    30.04R
JAMESTOWN      MOCLDY    47  35  63 NW23G32   29.80R
CARRINGTON     PTSUNNY   45  36  70 NW32G41   29.82R
LINTON           N/A     48  34  57 W16       29.93R
TIOGA          CLOUDY    41  34  75 NW24G30   29.98R
$$

CITY           SKY/WX    TMP DP  RH WIND       PRES   REMARKS
GRAND FORKS    MOCLDY    47  39  74 W18       29.67R
GRAND FORKS AF PTCLDY    47  37  69 NW18G25   29.68R
DEVILS LAKE    CLOUDY    43  39  86 NW24G33   29.76R
FARGO          MOCLDY    51  40  65 W22G36    29.71R
CANDO          PTSUNNY   43  43 100 NW23G30   29.81R
CAVALIER       PTSUNNY   46  39  76 NW22G29   29.67R
GWINNER        SUNNY     52  37  58 W15G25    29.80R
ROLLA          LGT RAIN  39  39 100 N20G30    29.81R
WALHALLA       FAIR     N/A N/A N/A NW22G30   29.70R
$$

CITY           SKY/WX    TMP DP  RH WIND       PRES   REMARKS
ABERDEEN       CLEAR     48  39  71 NW17G26   29.88R
MOBRIDGE       CLOUDY    51  40  65 NW23G35   29.93R
BUFFALO          N/A     41  31  67 W21       30.05R
RAPID CITY     CLEAR     49  21  33 NW30G47   30.14R
GLASGOW        PTCLDY    42  29  59 NW14      30.13R
SIDNEY         CLEAR     44  34  67 NW20G26   30.06R
WOLF POINT     MOCLDY    41  34  76 W8        30.11R
GLENDIVE       PTCLDY    43  31  62 NW15      30.11R
MILES CITY     CLEAR     44  28  53 W18       30.17R
BAKER          CLOUDY    44  31  60 W22G29    30.12R
$$

CITY           SKY/WX    TMP DP  RH WIND       PRES   REMARKS
BILLINGS       CLEAR     46  23  40 W17       30.30R
GREAT FALLS    CLEAR     40  21  46 SW14      30.30R
REGINA         CLOUDY    37  34  87 W12       29.96R
ESTEVAN        PTCLDY    39  37  93 NW16G23   29.96R
$$




USA.gov is the U.S. government's official web portal to all federal, state and local government web resources and services.